Theta_e
347 352 351 349 351 351 350 349 345 344 348 350 349 347 349 347 348 346 346 344 342 343 349 350 350 349 345 348 350 352 349 351 351 351 351 348 347 351 350 349 345 342 346
349 353 352 350 352 352 350 346 345 343 347 348 349 348 349 347 343 345 346 341 346 348 352 352 352 352 349 351 351 352 352 350 351 352 351 347 350 350 349 348 346 349 347
351 352 354 348 351 353 348 347 344 343 349 346 347 348 348 348 347 348 348 350 352 352 353 352 352 353 351 349 351 351 352 349 349 347 344 340 342 347 346 346 343 342 342
351 353 352 348 351 352 348 345 345 346 347 347 348 347 346 346 346 349 350 351 352 352 352 352 352 352 352 351 351 352 352 352 352 346 345 339 343 346 344 343 338 347 348
350 352 352 349 347 351 348 345 345 346 349 347 347 350 349 347 344 349 351 352 352 352 351 351 351 351 351 351 351 350 351 350 343 347 347 346 343 349 349 340 346 347 345
348 350 352 350 349 346 349 347 350 349 349 348 347 349 349 350 350 350 352 352 352 351 351 350 349 351 351 351 350 348 349 347 344 346 348 347 347 344 348 349 347 345 344
348 349 353 349 350 348 349 349 348 348 348 347 347 348 349 349 348 348 351 352 352 351 352 352 350 350 349 350 349 345 348 342 343 343 347 346 348 343 344 347 347 342 343
348 348 352 352 351 350 349 348 349 347 352 352 351 351 349 349 349 350 349 348 351 349 349 350 349 350 350 350 350 347 349 350 348 346 344 344 346 347 348 343 333 333 343
349 349 351 353 352 351 351 351 350 350 349 348 350 350 351 349 352 349 348 350 352 351 347 349 350 351 350 350 346 345 347 347 348 347 345 345 339 344 346 346 346 332 333
350 352 351 353 353 352 352 350 349 350 350 352 349 351 353 353 353 353 349 348 352 346 347 352 351 351 350 347 344 345 346 344 346 348 347 345 336 346 348 346 341 339 335
351 353 353 352 354 353 353 353 351 351 353 353 354 354 352 352 351 351 351 350 353 350 351 351 350 348 347 344 342 343 345 349 347 347 347 342 339 340 346 344 338 337 338
350 353 354 353 352 354 352 354 353 354 354 353 353 354 353 352 351 352 349 351 352 350 351 349 347 347 345 346 345 342 348 348 348 348 347 344 342 337 340 342 339 336 341
349 351 353 354 354 354 352 353 353 352 354 354 354 352 353 351 348 348 350 344 348 351 345 348 348 347 346 345 346 347 348 347 347 348 348 346 345 343 337 341 344 343 340
350 350 351 353 354 354 353 352 351 350 353 353 354 349 352 351 349 347 349 349 348 350 351 349 348 349 346 345 345 346 345 344 345 347 346 343 342 346 340 339 346 344 342
350 349 350 351 352 353 353 350 350 350 352 352 353 351 352 351 351 351 350 351 345 350 351 350 350 349 346 344 344 346 344 345 346 346 347 346 344 345 342 336 340 340 337
350 350 350 350 351 353 350 351 352 350 351 353 351 351 352 350 350 351 351 349 351 345 348 350 349 347 346 344 345 346 346 348 348 348 349 348 345 345 342 337 336 338 338
350 350 349 349 349 351 350 351 351 350 349 349 351 352 347 348 350 350 349 348 349 349 349 349 349 349 346 345 345 345 346 347 348 348 349 349 349 345 342 338 339 339 340
350 349 350 348 349 350 350 349 349 349 349 349 350 350 351 350 350 350 348 347 347 350 349 346 347 347 346 344 344 344 345 346 347 346 348 348 349 349 345 340 341 342 342
350 349 350 349 350 350 351 349 348 349 349 348 348 348 350 350 349 349 348 349 349 348 348 347 345 344 346 346 345 344 345 346 347 347 347 348 347 347 347 347 343 343 344
351 350 349 350 349 350 349 349 349 348 349 351 351 350 349 349 349 347 349 351 350 349 351 350 347 344 341 345 344 343 345 347 348 348 348 347 347 348 347 349 349 348 345
353 351 350 350 350 349 349 348 348 347 347 349 349 351 351 349 348 348 348 350 349 350 351 351 349 348 342 345 346 345 347 349 348 347 348 347 347 347 347 348 348 347 347
353 353 351 350 350 349 348 347 346 346 345 345 347 348 348 348 348 348 348 349 350 350 351 351 351 350 348 349 347 348 348 346 348 347 347 348 348 347 347 348 348 346 347
353 353 352 351 350 349 348 347 347 347 346 346 346 346 347 348 349 350 351 351 351 350 349 350 350 351 350 349 349 347 352 350 347 346 348 348 348 348 348 348 350 350 350
353 353 352 352 351 351 348 348 348 347 346 345 345 345 347 348 349 350 350 351 351 350 349 350 349 349 349 348 347 347 347 348 352 348 346 347 348 349 349 348 348 349 351
351 353 352 352 351 350 349 348 349 348 347 347 347 347 349 350 350 351 351 351 350 351 350 350 350 350 349 349 346 348 348 347 348 348 350 346 346 347 348 349 347 348 349
352 352 353 353 353 352 350 349 349 349 348 349 350 350 350 350 350 351 352 352 351 351 351 350 350 349 346 348 346 345 347 347 348 349 350 348 346 346 345 345 344 345 345
Wind_Speed
20 20 21 21 21 21 25 29 28 25 27 28 29 30 28 31 29 30 25 23 22 21 18 16 14 12 14 15 16 16 17 16 17 17 17 16 15 16 16 16 16 15 15
28 24 24 22 23 22 27 30 27 26 28 29 29 28 27 28 29 28 25 23 19 18 16 15 15 13 13 13 14 15 15 16 17 17 16 14 14 15 14 17 14 15 14
29 26 24 24 24 24 28 29 28 27 26 28 27 27 26 25 24 24 23 20 17 15 15 15 14 12 12 12 12 14 14 15 16 16 15 12 11 12 13 13 13 13 13
30 27 25 25 24 25 27 28 26 27 26 27 25 27 26 25 24 20 19 18 17 15 14 13 12 12 11 12 14 15 15 14 14 14 13 13 13 12 12 12 14 12 12
30 27 26 26 26 27 27 26 25 24 25 26 25 24 24 25 24 19 16 16 15 15 14 13 12 11 12 13 13 14 12 12 12 13 12 11 11 10 11 13 13 11 11
30 28 29 28 27 27 27 28 26 25 24 26 26 24 23 22 22 21 18 15 14 14 13 13 11 11 11 12 13 14 12 11 13 10 9 10 9 10 11 11 11 10 8
29 28 29 30 27 27 27 27 26 25 24 24 24 23 20 20 21 20 19 16 14 13 12 13 13 12 12 13 14 14 13 10 8 9 9 8 8 9 9 9 9 9 8
28 27 28 28 28 27 26 25 25 25 23 23 21 21 20 20 20 19 17 16 14 13 13 14 14 14 13 15 15 13 10 6 4 6 7 7 9 9 7 7 6 7 7
25 27 27 27 27 26 25 24 25 23 22 22 22 20 19 19 17 17 18 17 16 15 14 14 14 14 14 14 12 9 7 4 4 5 6 6 8 8 7 7 4 5 6
25 25 26 26 26 25 23 24 23 23 22 20 20 20 18 17 16 16 17 16 16 16 14 14 14 15 14 13 12 9 4 3 5 6 6 6 8 8 7 5 5 6 7
25 26 26 27 26 25 23 23 23 22 21 19 19 18 18 15 15 14 15 16 14 14 14 13 13 14 15 14 12 8 5 3 4 6 5 5 5 8 8 8 6 7 6
29 28 27 27 27 25 23 23 22 21 19 19 17 17 16 15 15 15 14 14 13 14 13 13 14 14 14 11 9 8 5 4 3 5 5 6 6 7 8 8 7 7 9
30 28 27 27 25 25 24 23 22 21 20 19 19 20 17 16 15 14 13 11 12 14 12 14 13 13 14 12 10 8 6 5 4 4 6 6 8 9 9 8 7 8 9
31 30 29 28 26 25 23 24 22 22 21 20 18 21 18 16 16 16 13 12 13 13 12 14 13 12 13 12 11 9 8 6 6 5 7 10 9 11 10 10 11 13 13
31 30 29 30 29 28 24 23 21 22 22 22 19 21 18 17 16 14 14 13 13 12 12 12 12 12 11 12 11 10 8 8 8 8 9 14 15 12 11 10 12 13 14
30 30 29 28 30 28 26 25 22 22 21 21 21 20 21 18 17 16 15 15 12 12 12 12 12 12 12 12 11 10 10 8 8 8 7 7 12 13 13 11 11 12 13
31 30 30 29 29 28 28 25 23 22 21 22 22 22 26 22 19 16 15 15 14 13 13 12 10 10 11 11 12 12 11 10 9 8 6 5 8 14 14 13 12 13 13
26 30 30 28 33 28 27 26 25 22 22 21 21 21 22 22 21 19 16 15 14 13 13 11 11 11 11 12 12 13 12 11 11 11 9 7 8 10 14 16 15 15 13
29 30 32 31 31 30 25 22 22 21 22 22 21 22 22 22 22 20 18 16 15 14 13 13 11 12 12 12 12 12 12 12 12 12 12 11 11 12 13 15 19 18 17
28 29 31 31 30 29 26 22 19 18 20 18 20 21 21 23 22 23 19 17 16 16 14 14 13 12 13 13 13 14 14 15 14 14 13 15 15 15 17 17 16 18 23
28 27 28 31 32 30 28 27 24 23 21 21 21 21 20 21 21 22 20 19 19 18 17 16 14 15 15 13 10 14 16 17 18 17 15 16 17 17 17 18 18 19 20
29 32 33 32 32 34 30 29 27 26 24 24 22 22 23 22 22 22 22 20 20 19 18 18 17 15 15 15 11 10 7 13 16 19 19 19 19 19 19 20 20 22 21
29 29 30 32 34 35 33 29 22 20 20 21 23 23 25 25 25 25 23 22 20 21 20 20 20 20 17 16 16 9 3 5 7 11 15 19 21 21 21 20 19 20 21
23 24 28 30 32 32 34 32 33 30 28 28 27 25 24 25 26 26 26 24 22 21 22 22 21 23 22 20 13 17 17 6 4 5 5 6 9 11 14 17 18 20 19
13 20 24 27 30 32 35 32 33 32 28 23 24 26 27 24 25 25 25 24 23 22 22 23 21 23 22 22 23 13 19 20 16 11 10 13 14 13 11 9 11 12 13
1 13 17 22 27 30 32 34 32 29 26 25 25 25 25 26 26 26 26 25 26 24 24 24 25 25 27 22 21 22 21 15 15 14 11 17 16 19 18 18 18 18 18
Wind_Direction
160 154 149 142 135 130 134 145 146 142 142 140 143 145 141 139 139 137 132 133 133 129 126 125 122 121 112 108 111 113 114 117 116 113 110 102 105 106 107 107 101 103 105
154 153 149 147 141 136 139 145 146 145 146 146 146 148 146 144 143 142 139 140 137 131 129 127 124 126 121 118 117 120 121 122 118 113 107 108 107 106 108 109 102 109 106
152 152 152 152 143 145 145 146 148 146 146 146 147 149 149 146 146 144 143 136 134 135 136 131 129 129 129 128 125 125 125 126 123 115 111 110 115 111 108 110 108 109 107
154 153 156 156 148 147 150 153 151 148 151 150 152 153 154 153 152 147 147 144 139 138 136 134 135 134 133 130 130 126 128 126 122 116 109 109 113 112 112 114 115 111 115
156 157 159 161 158 153 152 156 154 154 153 157 156 155 158 160 158 157 157 154 144 143 142 140 142 141 140 137 137 134 133 130 127 121 118 117 119 122 123 121 112 116 113
159 161 163 167 162 158 157 155 153 156 156 161 162 162 158 160 162 165 166 164 155 153 149 145 149 151 149 148 144 141 141 135 119 129 131 122 119 136 129 131 135 135 125
161 164 164 169 165 161 160 159 159 159 161 161 165 166 169 171 175 177 173 168 169 159 154 151 153 149 150 150 144 145 143 139 126 127 126 126 131 131 139 144 141 139 131
164 166 168 170 167 166 164 163 163 167 165 165 165 165 168 174 177 175 176 173 177 167 166 156 154 151 151 152 145 144 145 147 131 131 135 136 154 147 149 150 153 155 149
170 169 171 171 170 170 169 169 170 169 172 174 170 172 172 173 176 178 180 175 175 174 169 160 155 154 154 157 160 159 161 192 186 170 151 148 166 157 159 167 172 158 163
174 175 175 175 175 174 176 176 178 177 175 178 175 177 178 174 177 178 181 180 179 174 173 165 162 162 165 167 167 165 158 133 153 161 165 171 168 167 184 208 196 192 188
178 181 181 179 179 179 178 182 183 185 182 185 180 180 180 179 182 182 179 181 178 180 179 169 169 173 176 176 176 176 160 164 160 169 181 203 189 184 196 219 209 207 196
181 185 185 184 184 183 184 185 184 189 191 191 183 186 185 189 179 185 183 181 183 184 176 176 179 181 176 185 191 192 194 201 194 201 211 219 216 218 215 226 221 218 206
183 183 184 185 187 186 187 185 187 189 193 192 191 186 189 189 190 191 183 186 190 187 174 177 180 182 190 192 195 197 208 225 227 218 230 238 236 232 231 231 230 235 236
185 189 187 186 186 189 191 190 192 191 191 191 192 190 193 191 195 197 190 186 193 192 179 180 188 187 195 201 206 209 217 230 242 245 255 260 258 238 235 233 232 238 242
186 189 191 188 187 189 190 191 193 195 193 193 194 195 193 195 196 196 196 193 195 196 187 188 188 191 200 206 213 221 227 236 245 260 266 267 250 236 230 238 239 242 240
188 190 190 192 192 190 192 190 193 194 196 197 194 193 195 197 198 199 198 201 200 198 200 200 199 200 203 210 217 225 231 237 250 264 271 267 227 221 227 236 246 252 250
190 190 192 191 195 195 196 196 196 199 198 203 201 198 201 201 200 199 204 202 204 203 206 204 206 207 210 216 222 228 232 240 245 256 269 256 238 225 225 237 243 248 253
192 191 193 194 196 197 197 198 198 200 199 204 207 207 205 202 200 199 202 205 204 206 207 211 212 220 221 224 228 230 234 243 250 252 258 258 239 232 237 236 245 250 255
195 191 193 196 196 196 200 203 206 206 203 205 209 210 209 206 205 202 203 205 201 205 209 213 217 218 222 228 235 238 242 246 255 251 253 252 249 239 241 251 249 249 253
202 199 193 194 197 197 195 200 210 217 215 210 212 215 214 211 209 207 209 207 208 210 216 218 218 219 223 232 237 240 243 244 252 250 253 251 249 251 249 252 256 258 255
208 201 198 193 195 191 195 195 202 207 212 218 219 217 218 217 215 213 213 214 211 209 215 215 219 221 220 222 235 246 252 250 250 248 249 250 248 250 250 254 258 256 260
208 202 198 197 194 193 196 203 203 206 215 219 221 222 218 218 218 218 218 216 214 213 212 213 214 220 224 215 223 240 254 245 245 248 246 250 251 252 253 254 253 258 258
215 202 201 199 196 197 196 193 202 202 208 213 219 223 220 218 221 222 223 223 222 217 220 217 215 219 225 221 217 217 211 240 265 243 243 249 254 256 259 257 256 257 259
214 209 203 199 201 202 196 193 194 200 204 211 211 215 219 219 217 221 222 224 225 224 225 225 224 225 231 231 226 233 233 236 235 266 243 256 257 259 257 257 260 262 263
215 210 207 205 203 200 200 202 199 203 210 209 210 208 209 212 218 219 221 221 224 230 232 228 224 227 228 233 235 233 237 236 245 254 272 267 267 270 262 263 272 273 273
312 214 216 212 211 206 204 203 204 211 212 207 205 209 210 211 214 217 221 223 227 227 230 232 229 236 238 235 237 241 234 236 236 238 255 267 267 275 270 271 273 272 271